date,demand
2019-06-01,5523
2019-06-02,5435
2019-06-03,5897
2019-06-04,6406
2019-06-05,6570
2019-06-06,6601
2019-06-07,6056
2019-06-08,4710
2019-06-09,5086
2019-06-10,5277
2019-06-11,5473
2019-06-12,5590
2019-06-13,5852
2019-06-14,5698
2019-06-15,4671
2019-06-16,4542
2019-06-17,5731
2019-06-18,6049
2019-06-19,6276
2019-06-20,6696
2019-06-21,6753
2019-06-22,9690
2019-06-23,9452
2019-06-24,5178
2019-06-25,5462
2019-06-26,5454
2019-06-27,5807
2019-06-28,5910
2019-06-29,8384
2019-06-30,6659
2019-07-01,5468
2019-07-02,5963
2019-07-03,6929
2019-07-04,7832
2019-07-05,6368
2019-07-06,6546
2019-07-07,5133
2019-07-08,5204
2019-07-09,5403
2019-07-10,5685
2019-07-11,5938
2019-07-12,5847
2019-07-13,4557
2019-07-14,5806
2019-07-15,5257
2019-07-16,5551
2019-07-17,6498
2019-07-18,7440
2019-07-19,17800
2019-07-20,19051
2019-07-21,17288
2019-07-22,7374
2019-07-23,5843
2019-07-24,6439
2019-07-25,6435
2019-07-26,7503
2019-07-27,13879
2019-07-28,5648
2019-07-29,5216
2019-07-30,5520
2019-07-31,5953
2019-08-01,6720
2019-08-02,6450
2019-08-03,5699
2019-08-04,6524
2019-08-05,5431
2019-08-06,5924
2019-08-07,6666
2019-08-08,7636
2019-08-09,7087
2019-08-10,6606
2019-08-11,5170
2019-08-12,5057
2019-08-13,5461
2019-08-14,7747
2019-08-15,6019
2019-08-16,8063
2019-08-17,7301
2019-08-18,7242
2019-08-19,5225
2019-08-20,6109
2019-08-21,5350
2019-08-22,5097
2019-08-23,6062
2019-08-24,5745
2019-08-25,5838
2019-08-26,5415
2019-08-27,5755
2019-08-28,6319
2019-08-29,7078
2019-08-30,8888
2019-08-31,11507
2019-09-01,10650
2019-09-02,6765
2019-09-03,5210
2019-09-04,5023
2019-09-05,4984
2019-09-06,5447
2019-09-07,6159
2019-09-08,7714
2019-09-09,5413
2019-09-10,5609
2019-09-11,5966
2019-09-12,5926
2019-09-13,6452
2019-09-14,8778
2019-09-15,5993
2019-09-16,4953
2019-09-17,5616
2019-09-18,6058
2019-09-19,5293
2019-09-20,5348
2019-09-21,4787
2019-09-22,6046
2019-09-23,5120
2019-09-24,5687
2019-09-25,5426
2019-09-26,6131
2019-09-27,6703
2019-09-28,9401
2019-09-29,6226
2019-09-30,5578
2019-10-01,5507
2019-10-02,5597
2019-10-03,6732
2019-10-04,5658
2019-10-05,4675
2019-10-06,5937
2019-10-07,5288
2019-10-08,5440
2019-10-09,5024
2019-10-10,5066
2019-10-11,5692
2019-10-12,7117
2019-10-13,6547
2019-10-14,5691
2019-10-15,5662
2019-10-16,5553
2019-10-17,5590
2019-10-18,6021
2019-10-19,10274
2019-10-20,7781
2019-10-21,5843
2019-10-22,5913
2019-10-23,6470
2019-10-24,5662
2019-10-25,5482
2019-10-26,4555
2019-10-27,4597
2019-10-28,5337
2019-10-29,5298
2019-10-30,5272
2019-10-31,5872
2019-11-01,6147
2019-11-02,7711
2019-11-03,8611
2019-11-04,5637
2019-11-05,5370
2019-11-06,5223
2019-11-07,5424
2019-11-08,5434
2019-11-09,5689
2019-11-10,6819
2019-11-11,5356
2019-11-12,5240
2019-11-13,5286
2019-11-14,5878
2019-11-15,6409
2019-11-16,4720
2019-11-17,4722
2019-11-18,5219
2019-11-19,5183
2019-11-20,5004
2019-11-21,5402
2019-11-22,5398
2019-11-23,4406
2019-11-24,4767
2019-11-25,5165
2019-11-26,5087
2019-11-27,5498
2019-11-29,6629
2019-11-30,4555
2019-12-01,4958
2019-12-02,7153
2019-12-03,5216
2019-12-04,5533
2019-12-05,5616
2019-12-06,5632
2019-12-07,5452
2019-12-08,5681
2019-12-09,6265
2019-12-10,5727
2019-12-11,5465
2019-12-12,5579
2019-12-13,5259
2019-12-14,4644
2019-12-15,4600
2019-12-16,5051
2019-12-17,5529
2019-12-18,5600
2019-12-19,5643
2019-12-20,5482
2019-12-21,5314
2019-12-22,6335
2019-12-23,5211
2019-12-24,5097
2019-12-26,5206
2019-12-27,5202
2019-12-28,4684
2019-12-29,6408
2019-12-30,5091
2019-12-31,5444
